| time (UTC) | temp C | wind direction | speed KPH | gust KPH | rain 1hr cm | rain 24hr cm | rain mn cm | humidity % | barometer mb |
| 20260504231552 | 15 | 0 | 0.0 | 0.0 | 0.00 | 0.05 | 0.05 | 56 | 1006.1 |
| 20260504230053 | 16 | 0 | 0.0 | 0.0 | 0.00 | 0.05 | 0.05 | 55 | 1006.0 |
| 20260504224558 | 16 | 0 | 0.0 | 0.0 | 0.00 | 0.05 | 0.05 | 53 | 1005.8 |
| 20260504223134 | 17 | 0 | 0.0 | 1.6 | 0.00 | 0.05 | 0.05 | 50 | 1005.8 |
| 20260504221554 | 17 | 0 | 0.0 | 1.6 | 0.00 | 0.05 | 0.05 | 51 | 1005.9 |
| 20260504220058 | 17 | 0 | 0.0 | 1.6 | 0.00 | 0.05 | 0.05 | 50 | 1005.9 |
| 20260504214557 | 17 | 178 | 0.0 | 3.2 | 0.00 | 0.05 | 0.05 | 50 | 1006.0 |
| 20260504213102 | 17 | 0 | 1.6 | 4.8 | 0.00 | 0.05 | 0.05 | 51 | 1006.0 |
| 20260504211554 | 17 | 178 | 0.0 | 9.7 | 0.00 | 0.05 | 0.05 | 50 | 1005.9 |
| 20260504210059 | 18 | 178 | 1.6 | 11.3 | 0.00 | 0.05 | 0.05 | 50 | 1005.6 |
| 20260504204554 | 18 | 178 | 1.6 | 14.5 | 0.00 | 0.05 | 0.05 | 49 | 1005.7 |
| 20260504203110 | 18 | 178 | 3.2 | 12.9 | 0.00 | 0.05 | 0.05 | 47 | 1005.7 |
| 20260504201558 | 18 | 178 | 3.2 | 11.3 | 0.00 | 0.05 | 0.05 | 50 | 1005.7 |
| 20260504194552 | 18 | 178 | 1.6 | 9.7 | 0.00 | 0.05 | 0.05 | 52 | 1005.7 |
| 20260504193057 | 17 | 178 | 1.6 | 8.0 | 0.00 | 0.05 | 0.05 | 55 | 1005.9 |
| 20260504191600 | 16 | 178 | 0.0 | 8.0 | 0.00 | 0.05 | 0.05 | 62 | 1005.9 |
| 20260504190055 | 15 | 178 | 0.0 | 11.3 | 0.00 | 0.05 | 0.05 | 69 | 1006.1 |
| 20260504184557 | 14 | 178 | 0.0 | 3.2 | 0.00 | 0.05 | 0.05 | 70 | 1006.2 |
| 20260504183057 | 14 | 178 | 0.0 | 3.2 | 0.00 | 0.05 | 0.05 | 73 | 1006.4 |
| 20260504181600 | 13 | 0 | 0.0 | 8.0 | 0.03 | 0.05 | 0.05 | 75 | 1006.5 |
| 20260504180058 | 13 | 178 | 0.0 | 3.2 | 0.05 | 0.05 | 0.05 | 79 | 1006.5 |
| 20260504174602 | 12 | 0 | 0.0 | 3.2 | 0.05 | 0.05 | 0.05 | 81 | 1006.8 |
| 20260504173053 | 12 | 178 | 0.0 | 8.0 | 0.05 | 0.05 | 0.05 | 81 | 1007.0 |
| 20260504171554 | 13 | 178 | 0.0 | 8.0 | 0.03 | 0.03 | 0.03 | 71 | 1006.6 |
| 20260504150103 | 15 | 178 | 4.8 | 16.1 | 0.00 | 0.18 | 0.00 | 58 | 1006.5 |
| 20260504090104 | 0 | 0 | 0.0 | 0.0 | 0.00 | 0.56 | 0.00 | 89 | 1007.9 |
| 20260504081608 | 0 | 0 | 0.0 | 0.0 | 0.00 | 0.58 | 0.00 | 89 | 1008.0 |
| 20260504044603 | 2 | 178 | 0.0 | 0.0 | 0.00 | 0.61 | 0.00 | 79 | 1007.8 |
| 20260504043059 | 2 | 0 | 0.0 | 0.0 | 0.00 | 0.61 | 0.00 | 79 | 1007.9 |
| 20260504041553 | 2 | 0 | 0.0 | 0.0 | 0.00 | 0.61 | 0.00 | 78 | 1007.8 |
| 20260504040106 | 2 | 0 | 0.0 | 0.0 | 0.00 | 0.61 | 0.00 | 77 | 1007.8 |
| 20260504034612 | 3 | 0 | 0.0 | 0.0 | 0.00 | 0.61 | 0.61 | 75 | 1007.5 |
| 20260504033054 | 3 | 0 | 0.0 | 0.0 | 0.00 | 0.61 | 0.61 | 73 | 1007.5 |
| 20260504031550 | 3 | 0 | 0.0 | 0.0 | 0.00 | 0.61 | 0.61 | 72 | 1007.4 |
| 20260504030120 | 3 | 0 | 0.0 | 0.0 | 0.00 | 0.61 | 0.61 | 70 | 1007.3 |
| 20260504024600 | 3 | 0 | 0.0 | 0.0 | 0.00 | 0.71 | 0.61 | 68 | 1007.2 |
| 20260504023055 | 4 | 0 | 0.0 | 0.0 | 0.00 | 0.71 | 0.61 | 68 | 1007.2 |
| 20260504021558 | 5 | 0 | 0.0 | 0.0 | 0.00 | 0.71 | 0.61 | 66 | 1007.3 |
| 20260504020105 | 5 | 0 | 0.0 | 0.0 | 0.00 | 0.71 | 0.61 | 65 | 1007.1 |
| 20260504014556 | 5 | 0 | 0.0 | 0.0 | 0.00 | 0.74 | 0.61 | 63 | 1007.1 |
| 20260504013056 | 6 | 0 | 0.0 | 1.6 | 0.00 | 0.74 | 0.61 | 61 | 1007.0 |
| 20260504011553 | 6 | 178 | 0.0 | 4.8 | 0.00 | 0.74 | 0.61 | 60 | 1006.8 |
| 20260504010058 | 6 | 0 | 0.0 | 0.0 | 0.00 | 0.74 | 0.61 | 57 | 1006.5 |
| 20260504004552 | 7 | 0 | 0.0 | 3.2 | 0.00 | 0.76 | 0.61 | 55 | 1006.3 |
| 20260504003056 | 7 | 0 | 0.0 | 4.8 | 0.00 | 0.76 | 0.61 | 55 | 1006.0 |
| 20260504001606 | 7 | 178 | 0.0 | 1.6 | 0.00 | 0.76 | 0.61 | 54 | 1005.9 |
| 20260504000100 | 7 | 0 | 0.0 | 4.8 | 0.00 | 0.76 | 0.61 | 53 | 1005.7 |
| 20260503234555 | 8 | 178 | 0.0 | 4.8 | 0.00 | 0.86 | 0.61 | 51 | 1005.4 |
| 20260503233100 | 8 | 178 | 0.0 | 9.7 | 0.00 | 0.86 | 0.61 | 50 | 1005.2 |